Rechercher aéroport 
image banner adimage banner adimage banner ad
image banner ad

CL54 - Westside Towers

Situé à Los Angeles, United States

ICAO - CL54, IATA -

Données fournies par Airmate  

Information générale

Coordonnées: N34°1'59" W118°27'5"
Élévation : 325 feet MSL.
Variation magnétique : 14° East
Voir autres Aéroports à California

Données opérationnelles

Special qualification required
Heure actuelle UTC:
Heure actuelle locale:
Météo à : KSMO - Santa Monica Muni ( 2 km )
METAR: KSMO 231351Z AUTO 14003KT 5SM BR CLR 16/14 A2993 RMK AO2 SLP132 T01610144
TAF: KSMO 231304Z 2313/2412 VRB03KT P6SM SCT005 FM231600 VRB03KT P6SM SKC FM231800 23008KT P6SM SKC FM240300 VRB03KT P6SM SKC FM240900 VRB03KT P6SM OVC008
Voir NOTAMs / SUP AIP / TFR affectant cet aéroport [VIEW]
Fréquences de communication: [VIEW]

Pistes:

Coordonnées de l'aéroport

Adresse: Los Angeles United States

Vue satellite de CL54